Weather History for Oakdale, LA

Change the Weather History Date:

Saturday, February 2, 2013

  Actual Average (KPOE) Record (KPOE)
Temperature  
Mean Temperature 62 °F -  
Max Temperature 73 °F 58 °F 80 °F (1997)
Min Temperature 51 °F 40 °F 19 °F (2011)
Degree Days  
Heating Degree Days 3    
Growing Degree Days 12 (Base 50)    
Moisture  
Dew Point 49 °F    
Average Humidity 53    
Maximum Humidity 100    
Minimum Humidity 41    
Precipitation  
Precipitation 0.00 in - - ()
Sea Level Pressure  
Sea Level Pressure 30.25 in    
Wind  
Wind Speed 2 mph (SSW)    
Max Wind Speed 12 mph    
Max Gust Speed -    
Visibility 10 miles    
Events Rain    
Averages and records for this station are not official NWS values.
T = Trace of Precipitation, MM = Missing Value Source: NWS Daily Summary

Daily Weather History Graph

Daily Weather History Graph

Search for Another Location

Airport:

Trip Planner

Search our weather history database for the weather conditions in past years. The results will help you decide how hot, cold, wet, or windy it might be!

Date:

Astronomy

Feb. 02, 2013 Rise Set
Actual Time 7:01 AM CST 5:47 PM CST
Civil Twilight 6:36 AM CST 6:13 PM CST
Nautical Twilight 6:07 AM CST 6:41 PM CST
Astronomical Twilight 5:39 AM CST 7:10 PM CST
Moon No Moon Rise 10:43 AM CST (2/2)
Length of Visible Light 11h 36m
Length of Day
10h 46m
Waning Gibbous, 59% of the Moon is Illuminated
Feb 2
Waning Gibbous
Feb 3
Last Quarter
Feb 10
New
Feb 17
First Quarter
Feb 25
Full

Hourly Weather History & Observations

Time (CST) Temp. Dew Point Humidity Pressure Visibility Wind Dir Wind Speed Gust Speed Precip Events Conditions
12:15 AM - - N/A% 30.32 in 10.0 mi Calm Calm - N/A   Clear
12:35 AM - - N/A% 30.32 in 10.0 mi Calm Calm - N/A   Clear
12:55 AM - - N/A% 30.32 in 10.0 mi Calm Calm - N/A   Clear
1:15 AM - - N/A% 30.31 in 10.0 mi Calm Calm - N/A   Clear
1:35 AM - - N/A% 30.31 in 10.0 mi Calm Calm - N/A   Clear
1:55 AM - - N/A% 30.31 in 10.0 mi Calm Calm - N/A   Clear
2:15 AM - - N/A% 30.30 in 10.0 mi Calm Calm - N/A   Clear
2:35 AM - - N/A% 30.29 in 10.0 mi Calm Calm - N/A   Clear
2:55 AM - - N/A% 30.28 in 10.0 mi Calm Calm - N/A   Clear
3:15 AM - - N/A% 30.29 in 10.0 mi Calm Calm - N/A   Clear
3:35 AM - - N/A% 30.28 in 10.0 mi Calm Calm - N/A   Clear
3:55 AM - - N/A% 30.28 in 10.0 mi Calm Calm - N/A   Clear
4:15 AM - - N/A% 30.28 in 10.0 mi Calm Calm - N/A   Clear
4:35 AM - - N/A% 30.28 in 10.0 mi Calm Calm - N/A   Clear
4:55 AM - - N/A% 30.27 in 10.0 mi Calm Calm - N/A   Clear
5:15 AM - - N/A% 30.28 in 10.0 mi Calm Calm - N/A   Clear
5:35 AM - - N/A% 30.28 in 10.0 mi Calm Calm - N/A   Clear
5:55 AM - - N/A% 30.28 in 10.0 mi Calm Calm - N/A   Clear
6:15 AM - - N/A% 30.28 in 10.0 mi Calm Calm - N/A   Clear
6:35 AM - - N/A% 30.28 in 10.0 mi Calm Calm - N/A   Clear
6:55 AM - - N/A% 30.28 in 10.0 mi Calm Calm - N/A   Clear
7:15 AM - - N/A% 30.28 in 10.0 mi Calm Calm - N/A   Clear
7:35 AM - - N/A% 30.28 in 10.0 mi Calm Calm - N/A   Clear
7:55 AM - - N/A% 30.29 in 10.0 mi Calm Calm - N/A   Clear
8:15 AM - - N/A% 30.29 in 10.0 mi Calm Calm - N/A   Clear
8:35 AM 51.8 °F 51.8 °F 100% 30.29 in 10.0 mi SSE 3.5 mph - N/A   Clear
8:55 AM 55.4 °F 46.4 °F 72% 30.29 in 10.0 mi SE 5.8 mph - N/A   Clear
9:15 AM 57.2 °F 44.6 °F 63% 30.29 in 10.0 mi SE 6.9 mph - N/A   Clear
9:35 AM 59.0 °F 46.4 °F 63% 30.29 in 10.0 mi SE 6.9 mph - N/A   Clear
9:55 AM 60.8 °F 46.4 °F 59% 30.30 in 10.0 mi SSE 5.8 mph - N/A   Clear
10:15 AM 64.4 °F 48.2 °F 56% 30.29 in 10.0 mi South 5.8 mph - N/A   Clear
10:35 AM 64.4 °F 48.2 °F 56% 30.29 in 10.0 mi South 8.1 mph - N/A   Clear
10:55 AM 66.2 °F 48.2 °F 52% 30.28 in 10.0 mi SSW 9.2 mph - N/A   Clear
11:15 AM 66.2 °F 50.0 °F 56% 30.28 in 10.0 mi South 5.8 mph - N/A   Clear
11:35 AM 68.0 °F 50.0 °F 52% 30.27 in 10.0 mi SSW 4.6 mph - N/A   Clear
11:55 AM 69.8 °F 50.0 °F 49% 30.26 in 10.0 mi SSW 9.2 mph - N/A   Clear
12:15 PM 69.8 °F 51.8 °F 53% 30.25 in 10.0 mi SSW 11.5 mph - N/A   Clear
12:35 PM 69.8 °F 50.0 °F 49% 30.24 in 10.0 mi West 8.1 mph - N/A   Clear
12:55 PM 71.6 °F 50.0 °F 46% 30.23 in 10.0 mi SSW 6.9 mph - N/A   Scattered Clouds
1:15 PM 71.6 °F 50.0 °F 46% 30.22 in 10.0 mi SW 10.4 mph - N/A   Scattered Clouds
1:35 PM 71.6 °F 50.0 °F 46% 30.21 in 10.0 mi SW 5.8 mph - N/A   Scattered Clouds
1:55 PM 71.6 °F 50.0 °F 46% 30.21 in 10.0 mi WSW 6.9 mph - N/A   Scattered Clouds
2:15 PM 73.4 °F 50.0 °F 44% 30.20 in 10.0 mi SW 9.2 mph - N/A   Scattered Clouds
2:35 PM 71.6 °F 50.0 °F 46% 30.20 in 10.0 mi West 3.5 mph - N/A   Scattered Clouds
2:55 PM 73.4 °F 50.0 °F 44% 30.19 in 10.0 mi SW 6.9 mph - N/A   Scattered Clouds
3:15 PM 71.6 °F 50.0 °F 46% 30.18 in 10.0 mi South 5.8 mph - N/A   Mostly Cloudy
3:35 PM 73.4 °F 48.2 °F 41% 30.18 in 10.0 mi SW 8.1 mph - N/A   Scattered Clouds
3:55 PM 71.6 °F 48.2 °F 43% 30.18 in 10.0 mi SW 4.6 mph - N/A   Scattered Clouds
4:15 PM 71.6 °F 48.2 °F 43% 30.18 in 10.0 mi SW 5.8 mph - N/A   Clear
4:35 PM 71.6 °F 48.2 °F 43% 30.18 in 10.0 mi SW 5.8 mph - N/A   Clear
4:55 PM 71.6 °F 50.0 °F 46% 30.18 in 10.0 mi SW 4.6 mph - N/A   Clear
5:35 PM 66.2 °F 50.0 °F 56% 30.18 in 10.0 mi Calm Calm - N/A   Clear
6:15 PM 57.2 °F 51.8 °F 82% 30.19 in 3.0 mi Calm Calm - N/A   Clear
6:55 PM - - N/A% 30.20 in 4.0 mi Calm Calm - N/A   Haze
7:15 PM - - N/A% 30.21 in 4.0 mi South 3.5 mph - N/A   Haze
7:35 PM - - N/A% 30.22 in 10.0 mi Calm Calm - N/A   Mostly Cloudy
7:55 PM - - N/A% 30.22 in 10.0 mi Calm Calm - N/A   Mostly Cloudy
8:15 PM - - N/A% 30.22 in 10.0 mi Calm Calm - N/A   Scattered Clouds
8:35 PM - - N/A% 30.23 in 10.0 mi Calm Calm - N/A   Clear
8:55 PM - - N/A% 30.23 in 10.0 mi Calm Calm - N/A   Mostly Cloudy
9:15 PM - - N/A% 30.23 in 10.0 mi Calm Calm - N/A   Overcast
9:35 PM - - N/A% 30.23 in 10.0 mi Calm Calm - N/A   Overcast
9:55 PM - - N/A% 30.25 in 10.0 mi NNW 6.9 mph - N/A   Light Drizzle
10:15 PM - - N/A% 30.24 in 10.0 mi Calm Calm - N/A Rain Light Rain
10:35 PM - - N/A% 30.25 in 10.0 mi Calm Calm - N/A   Mostly Cloudy
10:55 PM - - N/A% 30.25 in 10.0 mi Calm Calm - N/A   Scattered Clouds
11:15 PM - - N/A% 30.25 in 10.0 mi Calm Calm - N/A   Scattered Clouds
11:35 PM - - N/A% 30.26 in 5.0 mi Calm Calm - N/A   Haze
11:55 PM - - N/A% 30.26 in 5.0 mi Calm Calm - N/A   Haze